FW3021 Weather Reports


Display with metric or nautical units.
time (UTC)temp
F
wind
direction
speed
MPH
gust
MPH
rain 1hr
in
rain 24hr
in
rain mn
in
humidity
%
barometer
mb
20260506212016 44 225 1.0 5.0 0.00 0.00 0.00 39 1011.7
20260506211016 44 338 7.0 14.0 0.00 0.00 0.00 38 1011.8
20260506210016 45 338 4.0 9.0 0.00 0.00 0.00 37 1011.9
20260506205016 45 338 5.0 12.0 0.00 0.00 0.00 37 1011.9
20260506204036 45 225 3.0 13.0 0.00 0.00 0.00 38 1012.0
20260506203016 44 315 4.0 10.0 0.00 0.00 0.00 38 1012.1
20260506202016 44 315 3.0 8.0 0.00 0.00 0.00 37 1012.1
20260506201016 44 23 5.0 14.0 0.00 0.00 0.00 37 1012.0
20260506200016 44 293 3.0 14.0 0.00 0.00 0.00 37 1012.1
20260506195016 44 0 6.0 12.0 0.00 0.00 0.00 37 1012.2
20260506194016 44 203 6.0 14.0 0.00 0.00 0.00 36 1012.2
20260506193016 44 315 2.0 7.0 0.00 0.00 0.00 37 1012.0
20260506192016 44 338 6.0 14.0 0.00 0.00 0.00 36 1012.2
20260506191016 44 315 5.0 11.0 0.00 0.00 0.00 37 1012.2
20260506190056 44 45 2.0 7.0 0.00 0.00 0.00 39 1012.3
20260506185016 43 113 4.0 12.0 0.00 0.00 0.00 39 1012.4
20260506184016 43 338 5.0 12.0 0.00 0.00 0.00 39 1012.3
20260506183016 43 315 4.0 14.0 0.00 0.00 0.00 38 1012.3
20260506182016 43 225 2.0 8.0 0.00 0.00 0.00 41 1012.2
20260506181016 43 225 3.0 11.0 0.00 0.00 0.00 40 1012.3
20260506180016 42 315 3.0 7.0 0.00 0.00 0.00 40 1012.3
20260506175016 42 315 3.0 17.0 0.00 0.00 0.00 41 1012.4
20260506174016 42 338 2.0 7.0 0.00 0.00 0.00 42 1012.4
20260506173016 42 315 5.0 11.0 0.00 0.00 0.00 41 1012.4
20260506172016 42 225 2.0 8.0 0.00 0.00 0.00 42 1012.6
20260506171036 42 0 3.0 9.0 0.00 0.00 0.00 42 1012.5
20260506170016 42 338 4.0 9.0 0.00 0.00 0.00 41 1012.6
20260506165015 41 225 3.0 10.0 0.00 0.00 0.00 42 1012.5
20260506164016 41 338 6.0 13.0 0.00 0.00 0.00 42 1012.6
20260506163015 41 338 3.0 8.0 0.00 0.00 0.00 43 1012.7
20260506162015 41 338 4.0 11.0 0.00 0.00 0.00 42 1012.5
20260506161015 41 315 4.0 11.0 0.00 0.00 0.00 43 1012.7
20260506160015 40 203 4.0 13.0 0.00 0.00 0.00 43 1012.7
20260506155015 40 68 1.0 3.0 0.00 0.00 0.00 43 1012.6
20260506154036 40 225 3.0 14.0 0.00 0.00 0.00 43 1012.5
20260506153036 40 248 1.0 4.0 0.00 0.00 0.00 44 1012.6
20260506152016 40 248 2.0 8.0 0.00 0.00 0.00 45 1012.6
20260506151015 40 23 2.0 4.0 0.00 0.00 0.00 44 1012.6
20260506150017 40 0 2.0 8.0 0.00 0.00 0.00 44 1012.6
20260506145017 39 225 3.0 9.0 0.00 0.00 0.00 44 1012.6
20260506144017 39 338 3.0 11.0 0.00 0.00 0.00 45 1012.6
20260506143037 39 68 1.0 4.0 0.00 0.00 0.00 47 1012.6
20260506142017 39 315 2.0 6.0 0.00 0.00 0.00 48 1012.5
20260506141015 38 315 4.0 10.0 0.00 0.00 0.00 47 1012.5
20260506140037 38 90 3.0 7.0 0.00 0.00 0.00 48 1012.5
20260506135017 38 338 4.0 12.0 0.00 0.00 0.00 49 1012.6
20260506134018 38 315 5.0 13.0 0.00 0.00 0.00 49 1012.6
20260506133037 38 23 6.0 13.0 0.00 0.00 0.00 49 1012.6
20260506132017 38 90 1.0 5.0 0.00 0.00 0.00 51 1012.6
20260506131037 37 0 2.0 5.0 0.00 0.00 0.00 52 1012.5
20260506130017 38 248 2.0 9.0 0.00 0.00 0.00 52 1012.4
20260506125017 38 0 2.0 8.0 0.00 0.00 0.00 52 1012.4
20260506124017 38 293 3.0 12.0 0.00 0.00 0.00 52 1012.3
20260506123017 37 315 4.0 9.0 0.00 0.00 0.00 53 1012.3
20260506122017 36 315 4.0 12.0 0.00 0.00 0.00 56 1012.2
20260506121017 35 225 2.0 9.0 0.00 0.00 0.00 60 1012.1
20260506120017 34 315 2.0 6.0 0.00 0.00 0.00 61 1012.0
20260506115037 33 0.0 1.0 0.00 0.00 0.00 63 1011.8
20260506114017 32 293 1.0 3.0 0.00 0.00 0.00 63 1011.8
20260506113017 32 0.0 2.0 0.00 0.00 0.00 64 1011.7
20260506112017 32 0.0 4.0 0.00 0.00 0.00 63 1011.7
20260506111017 32 0.0 2.0 0.00 0.00 0.00 64 1011.6
20260506110017 32 225 1.0 5.0 0.00 0.00 0.00 63 1011.5
20260506105017 32 225 1.0 3.0 0.00 0.00 0.00 62 1011.4
20260506104017 32 315 1.0 5.0 0.00 0.00 0.00 62 1011.4
20260506103017 32 315 3.0 7.0 0.00 0.00 0.00 63 1011.4
20260506102017 31 270 2.0 8.0 0.00 0.00 0.00 64 1011.4
20260506101017 31 0.0 3.0 0.00 0.00 0.00 63 1011.3
20260506100017 31 0.0 0.0 0.00 0.00 0.00 62 1011.4
20260506095017 32 248 1.0 2.0 0.00 0.00 0.00 61 1011.4
20260506094017 32 248 1.0 3.0 0.00 0.00 0.00 61 1011.4
20260506093017 33 0.0 1.0 0.00 0.00 0.00 61 1011.6
20260506092017 33 248 1.0 4.0 0.00 0.00 0.00 60 1011.5
20260506091017 33 0.0 2.0 0.00 0.00 0.00 59 1011.5
20260506090017 33 0.0 0.0 0.00 0.00 0.00 58 1011.4
20260506085016 34 0.0 2.0 0.00 0.00 0.00 58 1011.3
20260506084017 34 0.0 2.0 0.00 0.00 0.00 58 1011.3
20260506083017 34 0.0 2.0 0.00 0.00 0.00 58 1011.3
20260506082036 34 0.0 4.0 0.00 0.00 0.00 58 1011.3
20260506081017 34 315 2.0 6.0 0.00 0.00 0.00 58 1011.4
20260506073016 34 45 1.0 3.0 0.00 0.00 0.00 58 1011.3
20260506072016 34 45 1.0 4.0 0.00 0.00 0.00 58 1011.3
20260506071016 35 338 3.0 8.0 0.00 0.00 0.00 58 1011.2
20260506062016 35 338 1.0 4.0 0.00 0.00 0.00 54 1011.1
20260506061016 35 0.0 1.0 0.00 0.00 0.00 54 1011.1
20260506051016 36 293 1.0 6.0 0.00 0.00 0.00 47 1011.0
20260506045017 37 0.0 2.0 0.00 0.00 0.00 46 1010.7
20260506044016 37 293 2.0 7.0 0.00 0.00 0.00 46 1010.9
20260506043016 37 270 1.0 6.0 0.00 0.00 0.00 46 1010.7
20260506042016 37 248 2.0 4.0 0.00 0.00 0.00 46 1010.8
20260506041016 37 45 3.0 8.0 0.00 0.00 0.00 45 1010.8
20260506040016 37 0 3.0 8.0 0.00 0.01 0.00 45 1010.8
20260506035016 37 293 4.0 11.0 0.00 0.01 0.00 45 1010.7
20260506034036 37 0.0 0.0 0.00 0.01 0.00 45 1010.7
20260506033036 38 225 1.0 4.0 0.00 0.01 0.00 45 1010.7
20260506032016 38 293 2.0 8.0 0.00 0.01 0.00 44 1010.5
20260506031017 38 293 2.0 8.0 0.00 0.01 0.00 44 1010.5
20260506030016 38 0 4.0 10.0 0.00 0.01 0.00 44 1010.4
20260506025016 38 315 1.0 3.0 0.00 0.01 0.00 45 1010.3
20260506024036 38 315 1.0 5.0 0.00 0.01 0.00 45 1010.2
20260506023016 38 0.0 0.0 0.00 0.02 0.00 45 1010.1
20260506022016 38 315 4.0 10.0 0.00 0.02 0.00 44 1010.1
20260506021016 39 270 1.0 4.0 0.00 0.02 0.00 44 1009.9
20260506020016 39 293 1.0 4.0 0.00 0.02 0.00 43 1009.8
20260506015036 39 338 2.0 5.0 0.00 0.02 0.00 43 1009.7
20260506014016 39 293 1.0 4.0 0.00 0.02 0.00 43 1009.8
20260506013036 39 293 2.0 8.0 0.00 0.02 0.00 43 1009.6
20260506012016 39 315 2.0 11.0 0.00 0.02 0.00 43 1009.5
20260506011016 40 293 4.0 10.0 0.00 0.02 0.00 43 1009.4
20260506010016 40 315 2.0 8.0 0.00 0.02 0.00 42 1009.4
20260506005016 40 45 3.0 10.0 0.00 0.02 0.00 42 1009.2
20260506004056 40 338 3.0 10.0 0.00 0.02 0.00 41 1009.2
20260506003056 40 293 4.0 12.0 0.00 0.02 0.00 41 1009.1
20260506002016 41 338 3.0 6.0 0.00 0.02 0.00 40 1009.1
20260506001016 41 225 2.0 6.0 0.00 0.02 0.00 40 1009.0
20260506000016 41 0 2.0 9.0 0.00 0.02 0.00 40 1009.0
20260505235016 41 315 5.0 15.0 0.00 0.02 0.00 39 1009.0
20260505234016 41 315 5.0 11.0 0.00 0.02 0.00 39 1008.9
20260505233016 41 293 2.0 10.0 0.00 0.02 0.00 39 1008.8
20260505232036 42 315 5.0 15.0 0.00 0.02 0.00 38 1008.9
20260505231015 42 315 3.0 9.0 0.00 0.02 0.00 38 1008.9
20260505230035 42 248 2.0 8.0 0.00 0.02 0.00 37 1008.7
20260505225015 42 23 3.0 11.0 0.00 0.02 0.00 37 1008.6
20260505224016 43 293 5.0 14.0 0.00 0.02 0.00 37 1008.4
20260505223016 43 270 3.0 11.0 0.00 0.02 0.00 38 1008.3
20260505222015 43 315 4.0 9.0 0.00 0.02 0.00 38 1008.3
20260505221015 43 248 4.0 14.0 0.00 0.02 0.00 37 1008.3
20260505220015 43 315 6.0 13.0 0.00 0.02 0.00 36 1008.2
20260505215036 43 315 5.0 16.0 0.00 0.02 0.00 36 1008.1
20260505214015 44 315 4.0 11.0 0.00 0.02 0.00 35 1008.0
20260505213015 44 158 4.0 11.0 0.00 0.02 0.00 35 1007.8